sat.trackr.live / text

‹ back to catalog

ONEWEB-0326

NORAD 49195 · 2021-083K

PAYLOAD ACTIVE UNKNOWN

§ Identity

Operator
Country
UK
Launch date
2021-09-14
Launch site
TYMSC
Launch vehicle
Mass (kg)
RCS (m²)

Purposes: comms

External: N2YO · Heavens-Above · Gunter

§ Orbital elements

Epoch: 2026-09-19T22:10:03.811008Z

Period
109.20 min
Inclination
87.9161°
Eccentricity
0.0002164
Mean motion
13.18686658 rev/d
Perigee alt
1,188.1 km
Apogee alt
1,191.4 km
Semi-major
7,567.9 km
B*
9.4429e-5
RAAN
316.6346°
Arg perigee
101.2330°
Mean anomaly
258.9045°
Rev number
24,248

§ Raw data

ONEWEB-03261 49195U 21083K   26262.92365522  .00000050  00000+0  94429-4 0  99902 49195  87.9161 316.6346 0002164 101.2330 258.9045 13.18686658242489

JSON: /api/v1/satellites/49195 · /tle

For live sub-satellite position, see the globe view (requires WebGL).

§ Visibility from observer

Set your observer location to see the next 7 days of passes ≥ 10°. The values pass through the URL so the page stays shareable.

No JS? Fill the form by hand. The geolocation button needs JavaScript.